Time,TemperatureF,DewpointF,PressureIn,WindDirection,WindDirectionDegrees,WindSpeedMPH,WindSpeedGustMPH,Humidity,HourlyPrecipIn,Conditions,Clouds,dailyrainin,SoftwareType,DateUTC
2013-05-03 00:03:00,60.0,37.0,-100.00,NE,39,0.0,6.0,46,0.00,,,-99.99,,2013-05-03 04:03:00,
2013-05-03 00:13:00,60.0,37.0,-100.00,NE,39,0.0,6.0,46,0.00,,,-99.99,,2013-05-03 04:13:00,
2013-05-03 00:23:00,60.0,37.0,-100.00,NE,39,0.0,6.0,46,0.00,,,-99.99,,2013-05-03 04:23:00,
2013-05-03 00:32:00,60.0,37.0,-100.00,NE,39,0.0,6.0,46,0.00,,,-99.99,,2013-05-03 04:32:00,
2013-05-03 00:53:00,57.0,37.0,-100.00,North,351,0.0,6.0,49,0.00,,,-99.99,,2013-05-03 04:53:00,
2013-05-03 01:01:00,58.0,39.0,-100.00,NW,326,0.0,6.0,51,0.00,,,-99.99,,2013-05-03 05:01:00,
2013-05-03 01:03:00,57.0,45.0,-100.00,NE,38,0.0,6.0,66,0.00,,,-99.99,,2013-05-03 05:03:00,
2013-05-03 01:12:00,57.0,45.0,-100.00,NE,38,0.0,6.0,66,0.00,,,-99.99,,2013-05-03 05:12:00,
2013-05-03 01:22:00,58.0,39.0,-100.00,NW,326,0.0,6.0,51,0.00,,,-99.99,,2013-05-03 05:22:00,
2013-05-03 01:32:00,58.0,39.0,-100.00,NW,326,0.0,6.0,51,0.00,,,-99.99,,2013-05-03 05:32:00,
2013-05-03 01:42:00,58.0,39.0,-100.00,NW,326,0.0,6.0,51,0.00,,,-99.99,,2013-05-03 05:42:00,
2013-05-03 01:52:00,58.0,39.0,-100.00,NW,326,0.0,6.0,51,0.00,,,-99.99,,2013-05-03 05:52:00,
2013-05-03 02:22:00,57.0,36.0,-100.00,North,0,0.0,6.0,46,0.00,,,-99.99,,2013-05-03 06:22:00,
2013-05-03 02:32:00,57.0,39.0,-100.00,NW,326,0.0,6.0,54,0.00,,,-99.99,,2013-05-03 06:32:00,
2013-05-03 02:42:00,57.0,39.0,-100.00,North,8,0.0,6.0,54,0.00,,,-99.99,,2013-05-03 06:42:00,
2013-05-03 02:52:00,57.0,39.0,-100.00,North,8,0.0,6.0,54,0.00,,,-99.99,,2013-05-03 06:52:00,
2013-05-03 03:01:00,58.0,39.0,-100.00,NW,321,0.0,6.0,53,0.00,,,-99.99,,2013-05-03 07:01:00,
2013-05-03 03:11:00,58.0,41.0,-100.00,North,358,0.0,6.0,53,0.00,,,-99.99,,2013-05-03 07:11:00,
2013-05-03 03:22:00,58.0,39.0,-100.00,WSW,258,1.0,6.0,50,0.00,,,-99.99,,2013-05-03 07:22:00,
2013-05-03 03:32:00,57.0,39.0,-100.00,NW,326,0.0,6.0,53,0.00,,,-99.99,,2013-05-03 07:32:00,
2013-05-03 03:42:00,58.0,37.0,-100.00,NE,45,0.0,6.0,47,0.00,,,-99.99,,2013-05-03 07:42:00,
2013-05-03 03:52:00,58.0,37.0,-100.00,NE,45,0.0,6.0,47,0.00,,,-99.99,,2013-05-03 07:52:00,
2013-05-03 04:02:00,58.0,37.0,-100.00,NE,45,0.0,6.0,47,0.00,,,-99.99,,2013-05-03 08:02:00,
2013-05-03 04:12:00,57.0,41.0,-100.00,WSW,244,0.0,6.0,56,0.00,,,-99.99,,2013-05-03 08:12:00,
2013-05-03 04:21:00,57.0,41.0,-100.00,WSW,244,0.0,6.0,56,0.00,,,-99.99,,2013-05-03 08:21:00,
2013-05-03 04:32:00,57.0,41.0,-100.00,WSW,244,0.0,6.0,56,0.00,,,-99.99,,2013-05-03 08:32:00,
2013-05-03 04:42:00,56.0,41.0,-100.00,NNE,14,0.0,0.0,62,0.00,,,-99.99,,2013-05-03 08:42:00,
2013-05-03 04:52:00,56.0,41.0,-100.00,NNE,14,0.0,0.0,62,0.00,,,-99.99,,2013-05-03 08:52:00,
2013-05-03 05:01:00,54.0,41.0,-100.00,NNW,338,0.0,0.0,63,0.00,,,-99.99,,2013-05-03 09:01:00,
2013-05-03 05:12:00,54.0,41.0,-100.00,NNW,338,0.0,0.0,63,0.00,,,-99.99,,2013-05-03 09:12:00,
2013-05-03 05:21:00,54.0,41.0,-100.00,NNW,338,0.0,0.0,63,0.00,,,-99.99,,2013-05-03 09:21:00,
2013-05-03 05:33:00,54.0,43.0,-100.00,NNE,16,0.0,0.0,67,0.00,,,-99.99,,2013-05-03 09:33:00,
2013-05-03 05:42:00,54.0,43.0,-100.00,NNE,25,0.0,0.0,68,0.00,,,-99.99,,2013-05-03 09:42:00,
2013-05-03 05:53:00,53.0,41.0,-100.00,North,2,0.0,0.0,68,0.00,,,-99.99,,2013-05-03 09:53:00,
2013-05-03 06:03:00,54.0,43.0,-100.00,NE,43,0.0,0.0,68,0.00,,,-99.99,,2013-05-03 10:03:00,
2013-05-03 06:13:00,53.0,41.0,-100.00,NNE,22,0.0,0.0,68,0.00,,,-99.99,,2013-05-03 10:13:00,
2013-05-03 06:22:00,52.0,41.0,-100.00,NE,52,0.0,0.0,69,0.00,,,-99.99,,2013-05-03 10:22:00,
2013-05-03 06:32:00,53.0,41.0,-100.00,NE,39,0.0,0.0,66,0.00,,,-99.99,,2013-05-03 10:32:00,
2013-05-03 06:42:00,53.0,41.0,-100.00,WNW,292,0.0,0.0,68,0.00,,,-99.99,,2013-05-03 10:42:00,
2013-05-03 06:52:00,53.0,41.0,-100.00,North,1,0.0,0.0,68,0.00,,,-99.99,,2013-05-03 10:52:00,
2013-05-03 07:02:00,53.0,41.0,-100.00,NW,320,0.0,0.0,64,0.00,,,-99.99,,2013-05-03 11:02:00,
2013-05-03 07:11:00,53.0,41.0,-100.00,NW,320,0.0,0.0,64,0.00,,,-99.99,,2013-05-03 11:11:00,
2013-05-03 07:22:00,54.0,39.0,-100.00,NNE,24,0.0,0.0,58,0.00,,,-99.99,,2013-05-03 11:22:00,
2013-05-03 07:32:00,54.0,39.0,-100.00,NNE,24,0.0,0.0,58,0.00,,,-99.99,,2013-05-03 11:32:00,
2013-05-03 07:42:00,54.0,39.0,-100.00,NNE,24,0.0,0.0,58,0.00,,,-99.99,,2013-05-03 11:42:00,
2013-05-03 07:52:00,54.0,39.0,-100.00,NNE,24,0.0,0.0,58,0.00,,,-99.99,,2013-05-03 11:52:00,
2013-05-03 08:02:00,57.0,37.0,-100.00,North,2,0.0,1.0,51,0.00,,,-99.99,,2013-05-03 12:02:00,
2013-05-03 08:12:00,57.0,37.0,-100.00,North,2,0.0,1.0,51,0.00,,,-99.99,,2013-05-03 12:12:00,
2013-05-03 08:22:00,59.0,39.0,-100.00,NNW,336,1.0,1.0,49,0.00,,,-99.99,,2013-05-03 12:22:00,
2013-05-03 08:32:00,59.0,39.0,-100.00,NNW,336,1.0,1.0,49,0.00,,,-99.99,,2013-05-03 12:32:00,
2013-05-03 08:42:00,59.0,36.0,-100.00,NE,52,1.0,1.0,44,0.00,,,-99.99,,2013-05-03 12:42:00,
2013-05-03 08:52:00,60.0,37.0,-100.00,North,1,0.0,1.0,45,0.00,,,-99.99,,2013-05-03 12:52:00,
2013-05-03 09:01:00,61.0,36.0,-100.00,North,4,1.0,1.0,41,0.00,,,-99.99,,2013-05-03 13:01:00,
2013-05-03 09:11:00,61.0,36.0,-100.00,North,4,1.0,1.0,41,0.00,,,-99.99,,2013-05-03 13:11:00,
2013-05-03 09:22:00,62.0,36.0,-100.00,NNW,334,2.0,4.0,38,0.00,,,-99.99,,2013-05-03 13:22:00,
2013-05-03 09:32:00,63.0,34.0,-100.00,North,9,3.0,4.0,36,0.00,,,-99.99,,2013-05-03 13:32:00,
2013-05-03 09:42:00,63.0,34.0,-100.00,North,9,3.0,4.0,36,0.00,,,-99.99,,2013-05-03 13:42:00,
2013-05-03 09:52:00,64.0,34.0,-100.00,NW,313,2.0,4.0,34,0.00,,,-99.99,,2013-05-03 13:52:00,
2013-05-03 10:02:00,65.0,36.0,-100.00,North,8,2.0,4.0,33,0.00,,,-99.99,,2013-05-03 14:02:00,
2013-05-03 10:11:00,65.0,34.0,-100.00,WNW,289,2.0,4.0,32,0.00,,,-99.99,,2013-05-03 14:11:00,
2013-05-03 10:22:00,65.0,34.0,-100.00,WNW,289,2.0,4.0,32,0.00,,,-99.99,,2013-05-03 14:22:00,
2013-05-03 10:32:00,65.0,34.0,-100.00,WNW,289,2.0,4.0,32,0.00,,,-99.99,,2013-05-03 14:32:00,
2013-05-03 10:42:00,67.0,34.0,-100.00,SSW,208,2.0,4.0,31,0.00,,,-99.99,,2013-05-03 14:42:00,
2013-05-03 10:52:00,68.0,32.0,-100.00,ENE,76,3.0,4.0,28,0.00,,,-99.99,,2013-05-03 14:52:00,
2013-05-03 11:01:00,69.0,36.0,-100.00,NW,323,2.0,4.0,31,0.00,,,-99.99,,2013-05-03 15:01:00,
2013-05-03 11:11:00,69.0,32.0,-100.00,WNW,302,2.0,4.0,24,0.00,,,-99.99,,2013-05-03 15:11:00,
2013-05-03 11:22:00,70.0,32.0,-100.00,North,351,1.0,4.0,25,0.00,,,-99.99,,2013-05-03 15:22:00,
2013-05-03 11:32:00,70.0,30.0,-100.00,SE,132,2.0,4.0,22,0.00,,,-99.99,,2013-05-03 15:32:00,
2013-05-03 11:43:00,70.0,32.0,-100.00,NE,55,2.0,4.0,25,0.00,,,-99.99,,2013-05-03 15:43:00,
2013-05-03 11:53:00,69.0,32.0,-100.00,West,276,2.0,4.0,24,0.00,,,-99.99,,2013-05-03 15:53:00,
2013-05-03 12:03:00,69.0,32.0,-100.00,West,276,2.0,4.0,24,0.00,,,-99.99,,2013-05-03 16:03:00,
2013-05-03 12:13:00,71.0,32.0,-100.00,WNW,297,3.0,6.0,25,0.00,,,-99.99,,2013-05-03 16:13:00,
2013-05-03 12:23:00,72.0,32.0,-100.00,North,1,1.0,6.0,24,0.00,,,-99.99,,2013-05-03 16:23:00,
2013-05-03 12:33:00,71.0,32.0,-100.00,NNW,343,2.0,6.0,24,0.00,,,-99.99,,2013-05-03 16:33:00,
2013-05-03 12:42:00,72.0,34.0,-100.00,North,358,3.0,6.0,25,0.00,,,-99.99,,2013-05-03 16:42:00,
2013-05-03 12:52:00,72.0,32.0,-100.00,NNW,336,3.0,6.0,23,0.00,,,-99.99,,2013-05-03 16:52:00,
2013-05-03 13:02:00,73.0,34.0,-100.00,NNE,12,2.0,6.0,25,0.00,,,-99.99,,2013-05-03 17:02:00,
2013-05-03 13:12:00,73.0,34.0,-100.00,NNE,12,2.0,6.0,25,0.00,,,-99.99,,2013-05-03 17:12:00,
2013-05-03 13:23:00,74.0,36.0,-100.00,North,358,2.0,6.0,25,0.00,,,-99.99,,2013-05-03 17:23:00,
2013-05-03 13:32:00,74.0,36.0,-100.00,North,358,2.0,6.0,25,0.00,,,-99.99,,2013-05-03 17:32:00,
2013-05-03 13:42:00,74.0,36.0,-100.00,North,358,2.0,6.0,25,0.00,,,-99.99,,2013-05-03 17:42:00,
2013-05-03 13:52:00,74.0,36.0,-100.00,North,358,2.0,6.0,25,0.00,,,-99.99,,2013-05-03 17:52:00,
2013-05-03 14:01:00,73.0,36.0,-100.00,NW,320,4.0,6.0,27,0.00,,,-99.99,,2013-05-03 18:01:00,
2013-05-03 14:12:00,73.0,37.0,-100.00,NW,313,3.0,6.0,28,0.00,,,-99.99,,2013-05-03 18:12:00,
2013-05-03 14:22:00,74.0,37.0,-100.00,West,278,3.0,6.0,27,0.00,,,-99.99,,2013-05-03 18:22:00,
2013-05-03 14:32:00,74.0,37.0,-100.00,West,278,3.0,6.0,27,0.00,,,-99.99,,2013-05-03 18:32:00,
2013-05-03 14:42:00,74.0,36.0,-100.00,North,354,4.0,6.0,25,0.00,,,-99.99,,2013-05-03 18:42:00,
2013-05-03 14:52:00,74.0,36.0,-100.00,North,354,4.0,6.0,25,0.00,,,-99.99,,2013-05-03 18:52:00,
2013-05-03 15:01:00,74.0,36.0,-100.00,North,354,4.0,6.0,25,0.00,,,-99.99,,2013-05-03 19:01:00,
2013-05-03 15:11:00,74.0,36.0,-100.00,North,354,4.0,6.0,25,0.00,,,-99.99,,2013-05-03 19:11:00,
2013-05-03 15:21:00,76.0,39.0,-100.00,NW,317,2.0,8.0,27,0.00,,,-99.99,,2013-05-03 19:21:00,
2013-05-03 15:32:00,76.0,39.0,-100.00,NW,317,2.0,8.0,27,0.00,,,-99.99,,2013-05-03 19:32:00,
2013-05-03 15:42:00,76.0,39.0,-100.00,NW,317,2.0,8.0,27,0.00,,,-99.99,,2013-05-03 19:42:00,
2013-05-03 15:52:00,76.0,37.0,-100.00,WNW,296,2.0,8.0,25,0.00,,,-99.99,,2013-05-03 19:52:00,
2013-05-03 16:02:00,76.0,37.0,-100.00,WNW,296,2.0,8.0,25,0.00,,,-99.99,,2013-05-03 20:02:00,
2013-05-03 16:12:00,76.0,37.0,-100.00,WNW,296,2.0,8.0,25,0.00,,,-99.99,,2013-05-03 20:12:00,
2013-05-03 16:21:00,76.0,37.0,-100.00,WNW,296,2.0,8.0,25,0.00,,,-99.99,,2013-05-03 20:21:00,
2013-05-03 16:52:00,77.0,37.0,-100.00,NNW,336,2.0,10.0,24,0.00,,,-99.99,,2013-05-03 20:52:00,
2013-05-03 17:02:00,76.0,36.0,-100.00,NW,309,4.0,10.0,24,0.00,,,-99.99,,2013-05-03 21:02:00,
2013-05-03 17:11:00,77.0,36.0,-100.00,NW,323,3.0,10.0,24,0.00,,,-99.99,,2013-05-03 21:11:00,
2013-05-03 17:22:00,78.0,37.0,-100.00,North,350,2.0,10.0,24,0.00,,,-99.99,,2013-05-03 21:22:00,
2013-05-03 17:33:00,78.0,37.0,-100.00,North,350,2.0,10.0,24,0.00,,,-99.99,,2013-05-03 21:33:00,
2013-05-03 17:42:00,76.0,36.0,-100.00,North,0,3.0,10.0,23,0.00,,,-99.99,,2013-05-03 21:42:00,
2013-05-03 17:53:00,76.0,36.0,-100.00,North,0,3.0,10.0,23,0.00,,,-99.99,,2013-05-03 21:53:00,
2013-05-03 18:03:00,76.0,36.0,-100.00,West,259,2.0,10.0,24,0.00,,,-99.99,,2013-05-03 22:03:00,
2013-05-03 18:13:00,76.0,36.0,-100.00,WNW,289,2.0,10.0,24,0.00,,,-99.99,,2013-05-03 22:13:00,
2013-05-03 18:22:00,76.0,37.0,-100.00,South,177,3.0,10.0,25,0.00,,,-99.99,,2013-05-03 22:22:00,
2013-05-03 18:32:00,76.0,36.0,-100.00,West,268,4.0,10.0,25,0.00,,,-99.99,,2013-05-03 22:32:00,
2013-05-03 18:42:00,76.0,36.0,-100.00,West,268,4.0,10.0,25,0.00,,,-99.99,,2013-05-03 22:42:00,
2013-05-03 18:52:00,76.0,36.0,-100.00,West,268,4.0,10.0,25,0.00,,,-99.99,,2013-05-03 22:52:00,
2013-05-03 19:02:00,76.0,39.0,-100.00,NW,320,2.0,10.0,27,0.00,,,-99.99,,2013-05-03 23:02:00,
2013-05-03 19:11:00,75.0,36.0,-100.00,NNW,328,2.0,10.0,25,0.00,,,-99.99,,2013-05-03 23:11:00,
2013-05-03 19:22:00,75.0,36.0,-100.00,NNW,328,2.0,10.0,25,0.00,,,-99.99,,2013-05-03 23:22:00,
2013-05-03 19:32:00,75.0,36.0,-100.00,NNW,328,2.0,10.0,25,0.00,,,-99.99,,2013-05-03 23:32:00,
2013-05-03 19:41:00,75.0,36.0,-100.00,NNW,328,2.0,10.0,25,0.00,,,-99.99,,2013-05-03 23:41:00,
2013-05-03 19:52:00,73.0,37.0,-100.00,WNW,299,2.0,10.0,29,0.00,,,-99.99,,2013-05-03 23:52:00,
2013-05-03 20:01:00,73.0,39.0,-100.00,WNW,289,1.0,10.0,32,0.00,,,-99.99,,2013-05-04 00:01:00,
2013-05-03 20:11:00,73.0,39.0,-100.00,WNW,289,1.0,10.0,32,0.00,,,-99.99,,2013-05-04 00:11:00,
2013-05-03 20:23:00,71.0,39.0,-100.00,NNE,33,2.0,10.0,32,0.00,,,-99.99,,2013-05-04 00:23:00,
2013-05-03 20:32:00,71.0,39.0,-100.00,NNE,33,2.0,10.0,32,0.00,,,-99.99,,2013-05-04 00:32:00,
2013-05-03 20:42:00,70.0,39.0,-100.00,NNW,344,0.0,10.0,33,0.00,,,-99.99,,2013-05-04 00:42:00,
2013-05-03 20:52:00,69.0,41.0,-100.00,NNE,14,0.0,10.0,37,0.00,,,-99.99,,2013-05-04 00:52:00,
2013-05-03 21:01:00,68.0,43.0,-100.00,West,264,0.0,10.0,41,0.00,,,-99.99,,2013-05-04 01:01:00,
2013-05-03 21:11:00,67.0,43.0,-100.00,NNW,330,0.0,10.0,42,0.00,,,-99.99,,2013-05-04 01:11:00,
2013-05-03 21:21:00,67.0,41.0,-100.00,North,7,0.0,10.0,41,0.00,,,-99.99,,2013-05-04 01:21:00,
2013-05-03 21:32:00,67.0,41.0,-100.00,North,7,0.0,10.0,41,0.00,,,-99.99,,2013-05-04 01:32:00,
2013-05-03 21:42:00,67.0,41.0,-100.00,North,7,0.0,10.0,41,0.00,,,-99.99,,2013-05-04 01:42:00,
2013-05-03 21:52:00,67.0,41.0,-100.00,North,7,0.0,10.0,41,0.00,,,-99.99,,2013-05-04 01:52:00,
2013-05-03 22:11:00,66.0,39.0,-100.00,NNW,327,1.0,10.0,40,0.00,,,-99.99,,2013-05-04 02:11:00,
2013-05-03 22:21:00,66.0,43.0,-100.00,WSW,245,0.0,10.0,44,0.00,,,-99.99,,2013-05-04 02:21:00,
2013-05-03 22:32:00,66.0,43.0,-100.00,NW,313,0.0,10.0,45,0.00,,,-99.99,,2013-05-04 02:32:00,
2013-05-03 22:42:00,65.0,41.0,-100.00,North,0,1.0,10.0,44,0.00,,,-99.99,,2013-05-04 02:42:00,
2013-05-03 22:52:00,65.0,41.0,-100.00,North,0,1.0,10.0,44,0.00,,,-99.99,,2013-05-04 02:52:00,
2013-05-03 23:02:00,65.0,41.0,-100.00,North,0,1.0,10.0,44,0.00,,,-99.99,,2013-05-04 03:02:00,
2013-05-03 23:11:00,64.0,41.0,-100.00,WNW,297,0.0,10.0,44,0.00,,,-99.99,,2013-05-04 03:11:00,
2013-05-03 23:22:00,64.0,41.0,-100.00,WNW,297,0.0,10.0,44,0.00,,,-99.99,,2013-05-04 03:22:00,
2013-05-03 23:33:00,63.0,43.0,-100.00,NNE,12,0.0,10.0,50,0.00,,,-99.99,,2013-05-04 03:33:00,
2013-05-03 23:43:00,63.0,43.0,-100.00,NNE,12,0.0,10.0,50,0.00,,,-99.99,,2013-05-04 03:43:00,
2013-05-03 23:53:00,63.0,43.0,-100.00,NNE,12,0.0,10.0,50,0.00,,,-99.99,,2013-05-04 03:53:00,